Tracking 18980 objects as of 21-Feb-2018
HD Live streaming from Space Station
objects crossing your sky now

SL-23 DEB


SL-23 DEB is no longer on orbit


NORAD ID: 43091
Int'l Code: 2017-086E
Perigee: N/A
Apogee: N/A
Inclination: N/A
Period: N/A
Semi major axis: N/A
RCS: N/A
Launch date: December 26, 2017
Source: Commonwealth of Independent States (former USSR) (CIS)
Launch site: TYURATAM MISSILE AND SPACE COMPLEX (TTMTR)
Decay date: 2018-01-29

Note: This is SATELLITE DEBRIS
aabbcc
Your satellite tracking list
Your tracking list is empty




NASA's NSSDC Master Catalog

Two Line Element Set (TLE):
1 43091U 17086E   18028.64831836  .03850626  11457-4  57519-3 0  9999
2 43091  51.3765 225.1388 0117349 198.9941 160.6668 16.15972681  5184
Source of the keplerian elements: AFSPC